EW8958 Weather Reports


time (UTC)temp
C
wind
direction
speed
KPH
gust
KPH
rain 1hr
cm
rain 24hr
cm
rain mn
cm
humidity
%
barometer
mb
20260507070033 11 248 0.0 4.8 0.00 0.38 0.03 86 1006.0
20260507065015 11 0.0 0.0 0.00 0.38 0.03 86 1006.3
20260507064030 11 270 0.0 1.6 0.00 0.38 0.03 85 1006.3
20260507063022 11 0.0 0.0 0.00 0.38 0.03 84 1006.4
20260507062022 11 290 1.6 6.4 0.00 0.38 0.03 84 1006.3
20260507061024 11 0.0 0.0 0.00 0.38 0.03 84 1006.3
20260507060026 11 352 1.6 3.2 0.00 0.38 0.03 84 1006.3
20260507055026 11 328 3.2 6.4 0.00 0.38 0.03 84 1006.6
20260507054048 11 339 4.8 8.0 0.00 0.38 0.03 86 1006.4
20260507053023 12 332 3.2 4.8 0.00 0.38 0.03 89 1006.4
20260507052019 12 298 1.6 3.2 0.00 0.38 0.03 91 1006.6
20260507051021 12 269 1.6 4.8 0.00 0.38 0.03 90 1006.4
20260507050017 12 302 3.2 9.7 0.00 0.38 0.03 90 1006.7
20260507045031 12 277 1.6 4.8 0.03 0.38 0.03 90 1006.6
20260507044113 12 270 1.6 4.8 0.03 0.38 0.03 90 1006.4
20260507043036 12 266 1.6 4.8 0.03 0.38 0.03 89 1006.4
20260507042050 13 307 1.6 4.8 0.03 0.38 0.03 89 1006.3
20260507041025 13 258 3.2 8.0 0.03 0.38 0.03 88 1006.6
20260507040048 13 353 4.8 14.5 0.03 0.38 0.03 89 1006.2
20260507035022 14 279 4.8 12.9 0.00 0.36 0.36 93 1005.7
20260507034023 15 240 3.2 6.4 0.00 0.36 0.36 95 1005.9
20260507033024 15 134 3.2 4.8 0.00 0.36 0.36 95 1005.8
20260507032026 15 202 0.0 3.2 0.00 0.36 0.36 95 1005.6
20260507031022 15 201 1.6 6.4 0.00 0.36 0.36 95 1005.2
20260507030019 15 201 3.2 6.4 0.00 0.36 0.36 95 1005.3
20260507025032 15 200 3.2 6.4 0.00 0.36 0.36 95 1005.3
20260507024028 15 318 1.6 3.2 0.00 0.36 0.36 95 1005.4
20260507023024 15 225 1.6 6.4 0.00 0.36 0.36 95 1005.3
20260507022021 15 190 4.8 8.0 0.00 0.36 0.36 95 1005.1
20260507021028 15 174 3.2 6.4 0.00 0.36 0.36 95 1005.0
20260507020029 15 168 3.2 11.3 0.00 0.36 0.36 95 1005.1
20260507015047 15 220 3.2 6.4 0.00 0.36 0.36 95 1005.3
20260507014017 15 194 3.2 6.4 0.00 0.36 0.36 95 1005.3
20260507013019 15 115 3.2 6.4 0.00 0.36 0.36 95 1005.3
20260507012031 15 160 4.8 9.7 0.00 0.36 0.36 95 1005.4
20260507011036 15 175 4.8 8.0 0.00 0.36 0.36 95 1005.4
20260507010038 15 129 6.4 11.3 0.00 0.36 0.36 95 1005.3
20260507005024 15 177 8.0 16.1 0.00 0.36 0.36 95 1005.4
20260507004021 15 189 6.4 11.3 0.00 0.36 0.36 95 1005.2
20260507003021 15 192 6.4 11.3 0.00 0.36 0.36 95 1005.2
20260507002023 15 164 4.8 12.9 0.03 0.36 0.36 95 1005.2
20260507001019 15 169 4.8 8.0 0.03 0.36 0.36 95 1005.1
20260507000022 15 204 6.4 9.7 0.10 0.36 0.36 94 1005.0
20260506235049 15 177 3.2 6.4 0.13 0.36 0.36 94 1005.1
20260506234026 15 126 3.2 6.4 0.13 0.36 0.36 94 1005.0
20260506233027 15 160 4.8 11.3 0.13 0.36 0.36 94 1004.9
20260506232018 15 144 4.8 9.7 0.10 0.33 0.33 93 1004.8
20260506231020 15 165 4.8 9.7 0.13 0.33 0.33 93 1005.0
20260506230043 15 139 6.4 12.9 0.05 0.25 0.25 92 1005.2
20260506225017 15 242 4.8 9.7 0.03 0.23 0.23 92 1005.2
20260506224019 15 129 8.0 14.5 0.03 0.23 0.23 92 1005.3
20260506223026 15 138 6.4 9.7 0.03 0.23 0.23 92 1005.3
20260506222021 15 150 4.8 9.7 0.03 0.23 0.23 91 1005.4
20260506221017 15 179 6.4 9.7 0.00 0.20 0.20 91 1005.4
20260506220019 15 182 6.4 9.7 0.03 0.20 0.20 91 1005.5
20260506215033 15 186 6.4 11.3 0.03 0.20 0.20 91 1005.8
20260506214028 15 162 6.4 9.7 0.03 0.20 0.20 90 1005.7
20260506213024 15 270 4.8 4.8 0.05 0.20 0.20 90 1005.8
20260506212025 16 179 8.0 12.9 0.08 0.20 0.20 90 1006.2
20260506211046 16 219 6.4 9.7 0.08 0.20 0.20 89 1006.1
20260506210029 16 49 4.8 4.8 0.08 0.18 0.18 89 1006.2
20260506205024 16 158 9.7 14.5 0.08 0.18 0.18 89 1006.3
20260506204020 16 122 6.4 8.0 0.08 0.18 0.18 89 1006.3
20260506203015 16 217 11.3 17.7 0.08 0.15 0.15 88 1006.3
20260506202016 16 112 8.0 12.9 0.08 0.13 0.13 86 1006.2
20260506201024 16 131 6.4 11.3 0.08 0.13 0.13 85 1006.1
20260506200021 17 252 6.4 9.7 0.08 0.10 0.10 85 1006.3
20260506195016 17 188 4.8 9.7 0.10 0.10 0.10 85 1006.2
20260506194059 17 142 4.8 8.0 0.10 0.10 0.10 83 1006.2
20260506193033 17 173 4.8 6.4 0.08 0.08 0.08 83 1006.1
20260506192052 17 190 4.8 9.7 0.05 0.05 0.05 82 1006.0
20260506191023 18 198 3.2 4.8 0.05 0.05 0.05 80 1006.2
20260506190019 18 199 4.8 6.4 0.03 0.03 0.03 76 1006.2
20260506185032 19 174 8.0 14.5 0.00 0.00 0.00 69 1006.3
20260506184029 20 171 6.4 12.9 0.00 0.00 0.00 67 1006.3
20260506183030 20 211 4.8 8.0 0.00 0.00 0.00 65 1006.3
20260506182112 21 214 6.4 11.3 0.00 0.00 0.00 60 1006.4
20260506181027 22 187 8.0 11.3 0.00 0.00 0.00 56 1006.4
20260506180029 22 199 6.4 9.7 0.00 0.00 0.00 55 1006.4
20260506175025 22 133 8.0 14.5 0.00 0.00 0.00 54 1006.7
20260506174021 22 188 9.7 14.5 0.00 0.00 0.00 54 1006.5
20260506173032 23 169 11.3 12.9 0.00 0.00 0.00 53 1006.5
20260506172037 23 184 11.3 16.1 0.00 0.00 0.00 53 1006.5
20260506171030 23 158 11.3 20.9 0.00 0.00 0.00 52 1006.7
20260506170025 23 163 6.4 12.9 0.00 0.00 0.00 52 1006.8
20260506165021 23 175 4.8 8.0 0.00 0.00 0.00 53 1007.1
20260506164043 22 242 6.4 11.3 0.00 0.00 0.00 54 1007.1
20260506163025 22 186 4.8 9.7 0.00 0.00 0.00 56 1007.2
20260506162027 22 230 9.7 14.5 0.00 0.00 0.00 54 1007.4
20260506161022 22 173 6.4 11.3 0.00 0.00 0.00 55 1007.7
20260506160023 22 220 6.4 9.7 0.00 0.00 0.00 55 1008.0
20260506155019 22 201 6.4 11.3 0.00 0.00 0.00 55 1008.3
20260506154027 22 205 6.4 16.1 0.00 0.00 0.00 54 1008.3
20260506153023 22 213 8.0 12.9 0.00 0.00 0.00 55 1008.4
20260506152019 22 167 6.4 11.3 0.00 0.00 0.00 55 1008.4
20260506151035 22 179 8.0 14.5 0.00 0.00 0.00 56 1008.4
20260506150023 22 188 9.7 17.7 0.00 0.00 0.00 55 1008.7
20260506145045 22 220 6.4 9.7 0.00 0.00 0.00 57 1008.6
20260506144027 21 217 6.4 9.7 0.00 0.00 0.00 57 1008.6
20260506143043 21 204 8.0 14.5 0.00 0.00 0.00 58 1008.6
20260506142025 21 176 9.7 19.3 0.00 0.00 0.00 58 1008.4
20260506141049 21 201 8.0 11.3 0.00 0.00 0.00 59 1008.7
20260506140029 22 160 6.4 9.7 0.00 0.00 0.00 59 1008.5
20260506135031 20 166 9.7 16.1 0.00 0.00 0.00 62 1008.7
20260506134032 20 198 6.4 9.7 0.00 0.00 0.00 64 1009.0
20260506133016 20 155 6.4 14.5 0.00 0.00 0.00 66 1009.2
20260506132037 19 163 6.4 9.7 0.00 0.00 0.00 67 1009.2
20260506131026 18 185 8.0 11.3 0.00 0.00 0.00 68 1009.2
20260506130020 18 158 6.4 11.3 0.00 0.00 0.00 68 1009.2
20260506125035 18 145 6.4 9.7 0.00 0.00 0.00 69 1009.0
20260506124050 18 173 6.4 9.7 0.00 0.00 0.00 69 1009.1
20260506123032 18 191 4.8 9.7 0.00 0.00 0.00 70 1009.2
20260506122033 18 167 6.4 12.9 0.00 0.00 0.00 70 1009.3
20260506121016 18 185 8.0 14.5 0.00 0.00 0.00 68 1009.2
20260506120038 17 186 6.4 11.3 0.00 0.00 0.00 72 1009.4
20260506115038 17 182 6.4 8.0 0.00 0.00 0.00 74 1009.4
20260506114020 17 226 6.4 14.5 0.00 0.00 0.00 73 1009.6
20260506113032 17 165 8.0 12.9 0.00 0.00 0.00 73 1009.8
20260506112038 17 204 6.4 9.7 0.00 0.00 0.00 74 1009.6
20260506111019 17 181 6.4 12.9 0.00 0.00 0.00 71 1009.3
20260506110026 17 107 8.0 11.3 0.00 0.00 0.00 73 1009.5
20260506105021 16 164 6.4 14.5 0.00 0.00 0.00 75 1009.4
20260506104016 15 196 4.8 9.7 0.00 0.00 0.00 77 1009.5
20260506103018 15 158 6.4 11.3 0.00 0.00 0.00 77 1009.5
20260506102034 15 164 4.8 8.0 0.00 0.00 0.00 77 1009.4
20260506101028 15 181 6.4 9.7 0.00 0.00 0.00 76 1009.3
20260506100043 15 174 4.8 8.0 0.00 0.00 0.00 76 1009.5
20260506095019 15 186 6.4 12.9 0.00 0.00 0.00 76 1009.1
20260506094032 15 155 6.4 14.5 0.00 0.00 0.00 76 1009.3
20260506093028 15 156 6.4 11.3 0.00 0.00 0.00 76 1009.4
20260506092046 15 152 4.8 9.7 0.00 0.00 0.00 75 1009.4
20260506091028 15 150 8.0 17.7 0.00 0.00 0.00 75 1009.3
20260506090028 15 141 6.4 12.9 0.00 0.00 0.00 74 1009.4
20260506085031 16 136 4.8 9.7 0.00 0.00 0.00 74 1009.4
20260506084027 16 172 6.4 12.9 0.00 0.00 0.00 73 1009.4
20260506083022 16 201 6.4 11.3 0.00 0.00 0.00 73 1009.3
20260506082018 16 161 4.8 8.0 0.00 0.00 0.00 72 1009.3
20260506081112 16 181 6.4 11.3 0.00 0.00 0.00 72 1009.3
20260506073020 16 187 6.4 12.9 0.00 0.00 0.00 69 1009.2
20260506072018 17 172 6.4 11.3 0.00 0.00 0.00 68 1009.1
20260506071050 17 220 4.8 11.3 0.00 0.00 0.00 68 1008.9